Fosston, MN

1:24 PM CDT on August 21, 2017 (GMT -0500)
Fosston Municipal

Weather History for KFSE - April, 2014

Change the Weather History Date:

Monday, April 21, 2014

  Actual Average Record
Temperature  
Mean Temperature 42 °F -  
Max Temperature 53 °F 56 °F 96 °F (1980)
Min Temperature 30 °F 31 °F 19 °F (1988)
Degree Days  
Heating Degree Days 24    
Moisture  
Dew Point 31 °F    
Average Humidity 64    
Maximum Humidity 87    
Minimum Humidity 43    
Precipitation  
Precipitation 0.00 in - - ()
Sea Level Pressure  
Sea Level Pressure 30.04 in    
Wind  
Wind Speed 10 mph (WNW)    
Max Wind Speed 23 mph    
Max Gust Speed 33 mph    
Visibility 10 miles    
Events      
Averages and records for this station are not official NWS values.
T = Trace of Precipitation, MM = Missing Value Source: NWS Daily Summary

Daily Weather History Graph

Daily Weather History Graph

Search for Another Location

Airport or City:

Trip Planner

Search our weather history database for the weather conditions in past years. The results will help you decide how hot, cold, wet, or windy it might be!

Date:

Astronomy

Apr. 21, 2014 Rise Set
Actual Time 6:23 AM CDT 8:21 PM CDT
Civil Twilight 5:50 AM CDT 8:54 PM CDT
Nautical Twilight 5:09 AM CDT 9:35 PM CDT
Astronomical Twilight 4:24 AM CDT 10:20 PM CDT
Moon 1:58 AM CDT 11:45 AM CDT
Length of Visible Light 15h 04m
Length of Day
13h 58m
Waning Gibbous, 57% of the Moon is Illuminated
Apr 21
Waning Gibbous
Apr 22
Last Quarter
Apr 29
New
May 6
First Quarter
May 14
Full

Hourly Weather History & Observations

Time (CDT) Temp. Windchill Dew Point Humidity Pressure Visibility Wind Dir Wind Speed Gust Speed Precip Events Conditions
12:15 AM 53.6 °F - 33.8 °F 47% 29.91 in 10.0 mi West 6.9 mph - N/A   Clear
12:35 AM 51.8 °F - 33.8 °F 50% 29.91 in 10.0 mi Calm Calm - N/A   Mostly Cloudy
12:56 AM 51.8 °F - 32.0 °F 47% 29.91 in 10.0 mi Calm Calm - N/A   Mostly Cloudy
1:15 AM 50.0 °F - 32.0 °F 50% 29.92 in 10.0 mi Calm Calm - N/A   Scattered Clouds
1:35 AM 50.0 °F - 32.0 °F 50% 29.92 in 10.0 mi West 5.8 mph - N/A   Mostly Cloudy
1:56 AM 50.0 °F - 33.8 °F 54% 29.92 in 10.0 mi Calm Calm - N/A   Overcast
2:15 AM 48.2 °F - 33.8 °F 58% 29.91 in 10.0 mi Calm Calm - N/A   Overcast
2:35 AM 48.2 °F - 35.6 °F 62% 29.91 in 10.0 mi South 3.5 mph - N/A   Mostly Cloudy
2:56 AM 46.4 °F 43.5 °F 35.6 °F 66% 29.91 in 10.0 mi SW 5.8 mph - N/A   Overcast
3:15 AM 48.2 °F - 33.8 °F 58% 29.91 in 10.0 mi SW 8.1 mph - N/A   Scattered Clouds
3:35 AM 48.2 °F - 33.8 °F 58% 29.91 in 10.0 mi WSW 8.1 mph - N/A   Clear
3:56 AM 46.4 °F 42.4 °F 33.8 °F 62% 29.92 in 10.0 mi WSW 8.1 mph - N/A   Clear
4:15 AM 44.6 °F 40.7 °F 33.8 °F 66% 29.91 in 10.0 mi WSW 6.9 mph - N/A   Clear
4:35 AM 42.8 °F 38.0 °F 33.8 °F 70% 29.90 in 10.0 mi SSW 8.1 mph - N/A   Clear
4:55 AM 42.8 °F 37.5 °F 33.8 °F 70% 29.91 in 10.0 mi WSW 9.2 mph - N/A   Clear
5:15 AM 42.8 °F 36.2 °F 33.8 °F 70% 29.92 in 10.0 mi West 12.7 mph 18.4 mph N/A   Clear
5:35 AM 44.6 °F 38.4 °F 33.8 °F 66% 29.92 in 10.0 mi West 12.7 mph - N/A   Clear
5:55 AM 44.6 °F 39.2 °F 33.8 °F 66% 29.93 in 10.0 mi West 10.4 mph - N/A   Clear
6:15 AM 42.8 °F 37.5 °F 33.8 °F 70% 29.94 in 10.0 mi West 9.2 mph - N/A   Clear
6:35 AM 42.8 °F 37.0 °F 33.8 °F 70% 29.94 in 10.0 mi West 10.4 mph 18.4 mph N/A   Clear
6:55 AM 42.8 °F 35.8 °F 33.8 °F 70% 29.96 in 10.0 mi WNW 13.8 mph - N/A   Clear
7:15 AM 39.2 °F 29.0 °F 33.8 °F 81% 29.97 in 10.0 mi WNW 21.9 mph 27.6 mph N/A   Clear
7:35 AM 35.6 °F 24.5 °F 32.0 °F 87% 29.98 in 10.0 mi NW 20.7 mph 26.5 mph N/A   Scattered Clouds
7:55 AM 35.6 °F 24.8 °F 32.0 °F 87% 29.99 in 10.0 mi NW 19.6 mph 24.2 mph N/A   Overcast
8:15 AM 35.6 °F 25.2 °F 32.0 °F 87% 30.00 in 10.0 mi WNW 18.4 mph 27.6 mph N/A   Overcast
8:35 AM 35.6 °F 24.8 °F 32.0 °F 87% 30.01 in 10.0 mi NW 19.6 mph 33.4 mph N/A   Overcast
8:55 AM 35.6 °F 25.9 °F 32.0 °F 87% 30.02 in 10.0 mi NW 16.1 mph 31.1 mph N/A   Overcast
9:15 AM 37.4 °F 27.2 °F 32.0 °F 81% 30.03 in 10.0 mi NW 19.6 mph 26.5 mph N/A   Overcast
9:35 AM 37.4 °F 27.8 °F 32.0 °F 81% 30.03 in 10.0 mi NW 17.3 mph 29.9 mph N/A   Overcast
9:55 AM 39.2 °F 29.3 °F 30.2 °F 70% 30.04 in 10.0 mi NW 20.7 mph 32.2 mph N/A   Scattered Clouds
10:15 AM 41.0 °F 31.9 °F 30.2 °F 65% 30.04 in 10.0 mi NW 19.6 mph 28.8 mph N/A   Mostly Cloudy
10:35 AM 42.8 °F 33.5 °F 30.2 °F 61% 30.06 in 10.0 mi NW 23.0 mph 29.9 mph N/A   Scattered Clouds
10:55 AM 41.0 °F 31.9 °F 30.2 °F 65% 30.07 in 10.0 mi NNW 19.6 mph 27.6 mph N/A   Mostly Cloudy
11:15 AM 42.8 °F 34.5 °F 30.2 °F 61% 30.08 in 10.0 mi NW 18.4 mph 24.2 mph N/A   Mostly Cloudy
11:35 AM 41.0 °F 31.6 °F 30.2 °F 65% 30.08 in 10.0 mi NW 20.7 mph 26.5 mph N/A   Overcast
11:55 AM 39.2 °F 29.6 °F 30.2 °F 70% 30.10 in 10.0 mi NW 19.6 mph 25.3 mph N/A   Overcast
12:15 PM 39.2 °F 30.2 °F 30.2 °F 70% 30.10 in 10.0 mi WNW 17.3 mph 26.5 mph N/A   Overcast
12:35 PM 39.2 °F 30.2 °F 30.2 °F 70% 30.11 in 10.0 mi NW 17.3 mph 21.9 mph N/A   Overcast
12:55 PM 39.2 °F 29.8 °F 30.2 °F 70% 30.12 in 10.0 mi WNW 18.4 mph 25.3 mph N/A   Overcast
1:15 PM 39.2 °F 30.8 °F 30.2 °F 70% 30.12 in 10.0 mi NW 15.0 mph 25.3 mph N/A   Overcast
1:35 PM 39.2 °F 31.2 °F 30.2 °F 70% 30.12 in 10.0 mi WNW 13.8 mph 21.9 mph N/A   Overcast
1:55 PM 39.2 °F 29.8 °F 30.2 °F 70% 30.12 in 10.0 mi WNW 18.4 mph 24.2 mph N/A   Overcast
2:15 PM 42.8 °F 35.8 °F 30.2 °F 61% 30.12 in 10.0 mi NW 13.8 mph 25.3 mph N/A   Mostly Cloudy
2:35 PM 44.6 °F 38.4 °F 30.2 °F 57% 30.12 in 10.0 mi NW 12.7 mph 16.1 mph N/A   Mostly Cloudy
2:55 PM 46.4 °F 39.2 °F 28.4 °F 50% 30.12 in 10.0 mi NW 18.4 mph 28.8 mph N/A   Mostly Cloudy
3:15 PM 46.4 °F 38.5 °F 28.4 °F 50% 30.13 in 10.0 mi NW 21.9 mph 26.5 mph N/A   Scattered Clouds
3:35 PM 48.2 °F - 28.4 °F 46% 30.12 in 10.0 mi NW 18.4 mph 24.2 mph N/A   Scattered Clouds
3:55 PM 48.2 °F - 28.4 °F 46% 30.11 in 10.0 mi NW 18.4 mph 25.3 mph N/A   Clear
4:15 PM 48.2 °F - 28.4 °F 46% 30.11 in 10.0 mi NW 18.4 mph 23.0 mph N/A   Clear
4:35 PM 50.0 °F - 28.4 °F 43% 30.11 in 10.0 mi WNW 16.1 mph 23.0 mph N/A   Clear
4:55 PM 50.0 °F - 28.4 °F 43% 30.12 in 10.0 mi NW 21.9 mph 27.6 mph N/A   Clear
5:15 PM 50.0 °F - 30.2 °F 47% 30.11 in 10.0 mi NW 16.1 mph 27.6 mph N/A   Clear
5:35 PM 50.0 °F - 30.2 °F 47% 30.11 in 10.0 mi NW 13.8 mph 26.5 mph N/A   Clear
5:55 PM 51.8 °F - 30.2 °F 44% 30.11 in 10.0 mi NW 20.7 mph 27.6 mph N/A   Clear
6:15 PM 50.0 °F - 30.2 °F 47% 30.11 in 10.0 mi NW 16.1 mph 25.3 mph N/A   Scattered Clouds
6:35 PM 50.0 °F - 30.2 °F 47% 30.12 in 10.0 mi WNW 19.6 mph 26.5 mph N/A   Scattered Clouds
6:55 PM 48.2 °F - 30.2 °F 50% 30.12 in 10.0 mi NW 18.4 mph 24.2 mph N/A   Clear
7:15 PM 48.2 °F - 30.2 °F 50% 30.12 in 10.0 mi NW 16.1 mph 21.9 mph N/A   Scattered Clouds
7:35 PM 46.4 °F 40.1 °F 30.2 °F 53% 30.12 in 10.0 mi NW 15.0 mph 20.7 mph N/A   Scattered Clouds
7:55 PM 44.6 °F 39.7 °F 30.2 °F 57% 30.12 in 10.0 mi NW 9.2 mph - N/A   Clear
8:15 PM 42.8 °F 37.5 °F 30.2 °F 61% 30.12 in 10.0 mi NW 9.2 mph - N/A   Clear
8:35 PM 42.8 °F 39.3 °F 30.2 °F 61% 30.11 in 10.0 mi NW 5.8 mph - N/A   Clear
8:55 PM 39.2 °F 34.2 °F 30.2 °F 70% 30.12 in 10.0 mi NW 6.9 mph - N/A   Clear
9:15 PM 39.2 °F 37.0 °F 30.2 °F 70% 30.12 in 10.0 mi NW 3.5 mph - N/A   Clear
9:35 PM 37.4 °F 32.8 °F 30.2 °F 75% 30.12 in 10.0 mi NW 5.8 mph - N/A   Clear
9:55 PM 37.4 °F 32.8 °F 30.2 °F 75% 30.12 in 10.0 mi NW 5.8 mph - N/A   Clear
10:15 PM 35.6 °F - 28.4 °F 75% 30.12 in 10.0 mi Calm Calm - N/A   Clear
10:35 PM 35.6 °F - 28.4 °F 75% 30.12 in 10.0 mi Calm Calm - N/A   Clear
10:55 PM 33.8 °F - 28.4 °F 81% 30.12 in 10.0 mi Calm Calm - N/A   Clear
11:15 PM 33.8 °F - 28.4 °F 81% 30.12 in 10.0 mi Calm Calm - N/A   Clear
11:35 PM 30.2 °F - 26.6 °F 86% 30.13 in 10.0 mi Calm Calm - N/A   Clear
11:55 PM 30.2 °F - 24.8 °F 80% 30.13 in 10.0 mi Calm Calm - N/A   Clear